Regional Weather Roundup
Issued by NWS

Home | Current Version | Previous Version | Text Only | Print | Product List | Glossary Off
Versions: 1 2 3 4 5 6 7 8 9 10 11 12 13 14 15 16 17 18 19 20 21 22 23 24 25 26 27 28 29 30 31 32 33 34 35 36 37 38 39 40 41 42 43 44 45 46 47 48 49 50

000
ASUS43 KIND 241459
RWRIN

WEATHER ROUNDUP FOR INDIANA
NATIONAL WEATHER SERVICE INDIANAPOLIS IN
1100 AM EDT TUE MAY 24 2016

NOTE: "FAIR" INDICATES FEW OR NO CLOUDS BELOW 12,000 FEET WITH NO
SIGNIFICANT WEATHER AND/OR OBSTRUCTIONS TO VISIBILITY.

* - STATION DOES NOT REPORT WEATHER SUCH AS PRECIPITATION OR FOG.

+ - STATION NOT QUALITY CONTROLLED BY THE NATIONAL WEATHER SERVICE.
    USE DATA WITH CAUTION...ESPECIALLY DEWPOINT AND RELATIVE
    HUMIDITY OBSERVATIONS.

INZ001>003-010>013-019-020-241600-
NORTHWEST INDIANA

CITY           SKY/WX    TMP DP  RH WIND       PRES   REMARKS
GARY /AIRPORT/ MOSUNNY   77  61  57 SW12      30.02F
RENSSELAER +   SUNNY     79  45  29 SW9       30.04S

$$

LMZ046-743>745-241600-
SOUTHERN LAKE MICHIGAN

STATION/POSITION TIME  TEMP    WIND        PRES    WAVE
                       AIR SEA DIR/SP/G            HT
                 (UTC) (F)     (DEG/KT/KT) (MB)    (FT)
BURNS HARBOR     1400   71     200/ 11/ 14 1016.9S
MICHIGAN CITY    1400   70     180/  6/  7   N/A
5NW MICH CITY    1400   62 56  190/  4/  4   N/A     1

$$

INZ004-005-014>016-021>024-241600-
NORTH CENTRAL INDIANA

CITY           SKY/WX    TMP DP  RH WIND       PRES   REMARKS
ELKHART        MOSUNNY   75  55  50 MISG      30.05S
GOSHEN         SUNNY     76  50  40 SW12G17   30.05F
SOUTH BEND     SUNNY     74  50  42 SW10      30.05S

$$

INZ006>009-017-018-025>027-241600-
NORTHEAST INDIANA

CITY           SKY/WX    TMP DP  RH WIND       PRES   REMARKS
ANGOLA *+      SUNNY     75  48  38 SW10      30.06S
FORT WAYNE     PTSUNNY   76  48  37 SW12      30.08S

$$

INZ028-029-035-036-043>045-051>053-241600-
WEST CENTRAL INDIANA

CITY           SKY/WX    TMP DP  RH WIND       PRES   REMARKS
CRAWFORDSVL +  SUNNY     75  50  41 S12       30.07S
GREENCASTLE +  MOSUNNY   72  55  56 S7        30.09S
LAFAYETTE      SUNNY     76  49  38 S6        30.05F
TERRE HAUTE    SUNNY     74  53  48 S7        30.07F

$$

INZ030>032-037>040-046>048-054>057-064-065-241600-
CENTRAL INDIANA

CITY           SKY/WX    TMP DP  RH WIND       PRES   REMARKS
ANDERSON       SUNNY     73  48  40 S12       30.11F
COLUMBUS       SUNNY     73  54  49 S6        30.11F
INDIANAPOLIS   MOSUNNY   74  50  42 S10       30.09S
-EAGLE CREEK   SUNNY     75  48  38 S10       30.09R
KOKOMO *+      SUNNY     75  50  41 SW14      30.07F
SHELBYVILLE    SUNNY     75  51  43 S8        30.10S

$$

INZ033-034-041-042-049-050-058-059-241600-
EAST CENTRAL INDIANA

CITY           SKY/WX    TMP DP  RH WIND       PRES   REMARKS
MUNCIE         SUNNY     75  47  36 SW10      30.09F

$$

INZ060-061-067>069-081>083-085>088-241600-
SOUTHWEST INDIANA

CITY           SKY/WX    TMP DP  RH WIND       PRES   REMARKS
EVANSVILLE     CLOUDY    73  55  53 VRB3      30.09S
HUNTINGBURG *+ MOSUNNY   75  52  43 S10       30.09F

$$

INZ062-063-066-070>080-084-089>092-241600-
SOUTH CENTRAL AND SOUTHEAST INDIANA

CITY           SKY/WX    TMP DP  RH WIND       PRES   REMARKS
BLOOMINGTON    SUNNY     74  53  48 SE7       30.10S
MADISON *+     SUNNY     73  52  46 S6        30.14S
SEYMOUR +      SUNNY     77  54  44 S6        30.11S

$$




USA.gov is the U.S. government's official web portal to all federal, state and local government web resources and services.